This demonstration page uses our WeatherBlox Daily Observations layout. Learn more.

40.92945, -100.16068

Hourly Observations for April 2, 2018

Temp ( °F °C ) Dew Point ( °F °C ) Humidity (%) Winds ( mph kmh ) Pressure ( in mb ) Visibility ( mi km ) Precip ( " mm )
12:15 am 00:15 Clear 23 -5 19 -7.1 85 85 SSE 10 17 30.12 1020 10 16.0934 0 0
12:35 am 00:35 Clear 24 -4.5 20 -6.8 84 84 SSE 15 24 30.12 1020 10 16.0934 0 0
12:55 am 00:55 Clear 24 -4.3 20 -6.8 83 83 S 14 22 30.12 1020 10 16.0934 0 0
1:15 am 01:15 Clear 24 -4.5 19 -7 83 83 S 14 22 30.12 1020 10 16.0934 0 0
1:35 am 01:35 Clear 24 -4.5 19 -7 83 83 S 16 26 30.09 1019 10 16.0934 0 0
1:55 am 01:55 Clear 24 -4.5 20 -6.9 84 84 S 20 31 30.09 1019 10 16.0934 0 0
2:15 am 02:15 Clear 24 -4.6 20 -6.8 85 85 S 18 30 30.06 1018 10 16.0934 0 0
2:35 am 02:35 Clear 23 -4.8 20 -6.9 85 85 S 16 26 30.06 1018 10 16.0934 0 0
2:55 am 02:55 Clear 23 -4.8 20 -6.8 86 86 S 14 22 30.06 1018 10 16.0934 0 0
3:15 am 03:15 Clear 23 -5.1 19 -7 87 87 SSE 13 20 30.06 1018 10 16.0934 0 0
3:35 am 03:35 Clear 22 -5.3 19 -7 88 88 SSE 13 20 30.03 1017 10 16.0934 0 0
3:55 am 03:55 Clear 22 -5.5 19 -7.1 89 89 SSE 9 15 30 1016 10 16.0934 0 0
4:15 am 04:15 Clear 22 -5.6 19 -7.1 89 89 SSE 9 15 30 1016 10 16.0934 0 0
4:35 am 04:35 Clear 22 -5.7 19 -7.1 90 90 SSE 12 19 29.97 1015 10 16.0934 0 0
4:55 am 04:55 Clear 21 -6 19 -7.3 91 91 S 8 13 29.97 1015 10 16.0934 0 0
5:15 am 05:15 Partly Cloudy 22 -5.7 19 -7 91 91 S 9 15 29.97 1015 10 16.0934 0 0
5:35 am 05:35 Clear 22 -5.7 19 -7 91 91 SSE 9 15 29.97 1015 10 16.0934 0 0
5:55 am 05:55 Clear 21 -6 19 -7.3 91 91 S 10 17 29.97 1015 10 16.0934 0 0
6:15 am 06:15 Clear 21 -6 19 -7.2 91 91 SSE 8 13 29.97 1015 10 16.0934 0 0
6:35 am 06:35 Clear 21 -6 19 -7.2 91 91 SSE 6 9 29.94 1014 10 16.0934 0 0
6:55 am 06:55 Clear 22 -5.8 19 -7 91 91 SSE 9 15 29.94 1014 10 16.0934 0 0
7:15 am 07:15 Clear 22 -5.7 19 -7 91 91 SSE 14 22 29.91 1013 10 16.0934 0 0
7:35 am 07:35 Sunny 22 -5.5 20 -6.9 90 90 SSE 17 28 29.88 1012 10 16.0934 0 0
7:55 am 07:55 Sunny 22 -5.5 20 -6.8 91 91 SSE 17 28 29.85 1011 10 16.0934 0 0
8:15 am 08:15 Sunny 23 -4.8 20 -6.5 88 88 S 21 33 29.83 1010 10 16.0934 0 0
8:35 am 08:35 Sunny 24 -4.7 20 -6.5 87 87 S 21 33 29.83 1010 10 16.0934 0 0
8:55 am 08:55 Sunny 24 -4.3 20 -6.4 85 85 S 18 30 29.83 1010 10 16.0934 0 0
9:15 am 09:15 Sunny 26 -3.2 22 -5.6 84 84 S 21 33 29.83 1010 10 16.0934 0 0
9:35 am 09:35 Sunny 27 -2.8 22 -5.6 81 81 S 18 30 29.83 1010 10 16.0934 0 0
9:55 am 09:55 Sunny 28 -2 23 -5 80 80 S 16 26 29.77 1008 10 16.0934 0 0
10:15 am 10:15 Sunny 29 -1.5 23 -4.8 78 78 S 13 20 29.77 1008 10 16.0934 0 0
10:35 am 10:35 Sunny 30 -0.9 24 -4.3 78 78 S 18 30 29.77 1008 10 16.0934 0 0
10:55 am 10:55 Sunny 32 -0.2 25 -3.8 77 77 S 15 24 29.77 1008 10 16.0934 0 0
11:15 am 11:15 Sunny 33 0.3 26 -3.5 76 76 S 20 31 29.77 1008 10 16.0934 0 0
11:35 am 11:35 Sunny 33 0.3 26 -3.3 77 77 SSW 18 30 29.77 1008 10 16.0934 0 0
11:55 am 11:55 Partly Cloudy 34 1.1 27 -2.6 77 77 S 22 35 29.74 1007 10 16.0934 0 0
12:15 pm 12:15 Partly Cloudy 35 1.7 28 -2.5 74 74 S 20 31 29.71 1006 10 16.0934 0 0
12:35 pm 12:35 Partly Cloudy 37 2.7 29 -1.8 73 73 S 21 33 29.71 1006 10 16.0934 0 0
12:55 pm 12:55 Sunny 39 3.7 30 -0.9 72 72 S 17 28 29.65 1004 10 16.0934 0 0
1:15 pm 13:15 Sunny 40 4.6 32 -0.2 71 71 S 15 24 29.65 1004 10 16.0934 0 0
1:35 pm 13:35 Sunny 42 5.7 33 0.4 69 69 S 14 22 29.65 1004 10 16.0934 0 0
1:55 pm 13:55 Sunny 42 5.6 32 0 68 68 SSE 15 24 29.62 1003 10 16.0934 0 0
2:15 pm 14:15 Sunny 45 7 33 0.7 65 65 SSE 12 19 29.59 1002 10 16.0934 0 0
2:35 pm 14:35 Sunny 46 7.6 34 1.2 64 64 SSE 15 24 29.59 1002 10 16.0934 0 0
2:55 pm 14:55 Sunny 47 8.5 34 1.3 61 61 S 12 19 29.59 1002 10 16.0934 0 0
3:15 pm 15:15 Sunny 48 8.9 34 1.3 59 59 SSE 14 22 29.53 1000 10 16.0934 0 0
3:35 pm 15:35 Sunny 49 9.4 35 1.5 58 58 SSE 14 22 29.53 1000 10 16.0934 0 0
3:55 pm 15:55 Sunny 49 9.6 35 1.4 57 57 SE 12 19 29.5 999 10 16.0934 0 0
4:15 pm 16:15 Sunny 49 9.5 35 1.6 58 58 SE 13 20 29.5 999 10 16.0934 0 0
4:35 pm 16:35 Sunny 50 10 35 1.7 57 57 SE 13 20 29.5 999 10 16.0934 0 0
4:55 pm 16:55 Sunny 51 10.4 36 2.1 57 57 SE 13 20 29.47 998 10 16.0934 0 0
5:15 pm 17:15 Sunny 51 10.7 37 2.9 59 59 SE 13 20 29.47 998 10 16.0934 0 0
5:35 pm 17:35 Sunny 51 10.6 37 2.6 58 58 ESE 12 19 29.47 998 10 16.0934 0 0
5:55 pm 17:55 Sunny 52 11.2 36 2.4 55 55 SE 14 22 29.47 998 10 16.0934 0 0
6:15 pm 18:15 Sunny 52 11 35 1.9 54 54 SE 12 19 29.47 998 10 16.0934 0 0
6:35 pm 18:35 Sunny 51 10.6 36 2.1 56 56 SE 14 22 29.47 998 10 16.0934 0 0
6:55 pm 18:55 Sunny 51 10.3 35 1.8 56 56 SE 12 19 29.47 998 10 16.0934 0 0
7:15 pm 19:15 Sunny 50 9.9 35 1.6 57 57 SE 10 17 29.47 998 10 16.0934 0 0
7:35 pm 19:35 Sunny 49 9.4 35 1.6 59 59 E 10 17 29.47 998 10 16.0934 0 0
7:55 pm 19:55 Sunny 46 7.7 37 3 72 72 E 9 15 29.5 999 10 16.0934 0 0
8:15 pm 20:15 Clear 45 7 37 2.8 75 75 ENE 8 13 29.5 999 10 16.0934 0 0
8:35 pm 20:35 Clear 43 6.3 37 2.5 77 77 ENE 12 19 29.5 999 10 16.0934 0 0
8:55 pm 20:55 Clear 43 5.9 35 1.8 75 75 ENE 13 20 29.53 1000 10 16.0934 0 0
9:15 pm 21:15 Clear 42 5.5 35 1.8 77 77 ENE 12 19 29.53 1000 10 16.0934 0 0
9:35 pm 21:35 Clear 40 4.5 35 1.4 81 81 ENE 20 31 29.59 1002 10 16.0934 0 0
9:55 pm 21:55 Clear 38 3.2 34 0.9 85 85 E 17 28 29.59 1002 10 16.0934 0 0
10:15 pm 22:15 Clear 37 2.5 33 0.3 86 86 ENE 18 30 29.59 1002 10 16.0934 0 0
10:35 pm 22:35 Partly Cloudy 35 1.7 32 0 89 89 E 18 30 29.62 1003 7 11.26538 0 0
10:55 pm 22:55 Mostly Cloudy 34 1 31 -0.5 90 90 E 17 28 29.65 1004 7 11.26538 0 0
11:15 pm 23:15 Cloudy with Mist and Fog 33 0.5 31 -0.5 93 93 E 21 33 29.62 1003 5 8.0467 0 0
11:35 pm 23:35 Cloudy with Mist and Fog 33 0.5 31 -0.5 93 93 E 18 30 29.65 1004 5 8.0467 0 0
11:55 pm 23:55 Cloudy with Mist and Fog 32 0.2 31 -0.6 94 94 E 16 26 29.65 1004 3 4.82802 0 0

Powered by AerisWeather